Etusivu
METAR-TAF:

METAR-TAF

Lentoasemat :

Salt Point, Louisiana, Yhdysvallat

Leveyspiiri: 29-33-44N, Pituuspiiri: 091-31-32W, korkeus merenpinnasta: 0 m

Tämänhetkinen sää

Tämä raportti tehtiin 48 minuuttia sitten, kello 03.59 UTC
Tuuli 7 kn idästä/kaakosta
Lämpötila 12°C
Kosteus 82%
Ilmanpaine 1020 hPa

METAR: KP92 260359Z AUTO 12007KT 12/09 A3012 RMK AO1 SLP197 T01220094

Aika: 22:47 (04:47 UTC)


TAF: puuttuu

Säähavainnot ja -ennusteet yli 4000 lentoasemalta (METAR- ja TAF-raportit).

Käytössä olevat sääasemat on merkitty karttaan keltaisilla ja punaisilla pisteillä.

Aseta hiiri pisteen päälle nähdäksesi sääaseman nimen.

Klikkaa sitten nähdäksesi säähavainnot ja -ennusteet.

Kartan vaihtaminen: klikkaa mustalla rastilla varustettuja vihreitä pisteitä, niin voit zoomata sisään; viivalla varustettua vihreää pistettä, niin voit zoomata ulos tai vihreitä nuolia, niin pääset viereisille kartoille.


METAR-TAF: